EW2690 Weather Reports


Display with metric or nautical units.
time (UTC)temp
F
wind
direction
speed
MPH
gust
MPH
rain 1hr
in
rain 24hr
in
rain mn
in
humidity
%
barometer
mb
20260502190416 47 346 5.0 13.0 0.00 0.03 0.03 61 1027.2
20260502190030 47 280 5.0 11.0 0.00 0.03 0.03 65 1027.2
20260502183010 48 306 7.0 12.0 0.00 0.04 0.03 61 1027.2
20260502180327 48 321 7.0 12.0 0.00 0.04 0.03 60 1027.4
20260502170316 46 60 5.0 12.0 0.00 0.05 0.03 60 1027.5
20260502163014 44 344 4.0 9.0 0.00 0.12 0.03 66 1027.6
20260502160312 44 39 4.0 10.0 0.00 0.12 0.03 71 1027.7
20260502150343 42 71 2.0 8.0 0.00 0.21 0.03 73 1027.4
20260502140108 40 24 3.0 7.0 0.00 0.23 0.03 80 1027.1
20260502130323 38 350 2.0 9.0 0.00 0.29 0.03 88 1027.2
20260502123025 38 19 1.0 3.0 0.00 0.38 0.03 96 1027.0
20260502120338 37 178 1.0 2.0 0.00 0.38 0.03 97 1026.9
20260502113009 37 182 1.0 3.0 0.00 0.40 0.03 96 1026.8
20260502110351 37 181 0.0 2.0 0.01 0.40 0.03 96 1026.6
20260502110045 37 181 1.0 2.0 0.01 0.40 0.03 96 1026.6
20260502103018 37 182 1.0 2.0 0.01 0.42 0.03 95 1026.4
20260502100427 37 182 1.0 2.0 0.00 0.41 0.02 95 1026.3
20260502100104 37 182 0.0 2.0 0.00 0.41 0.02 95 1026.3
20260502090320 38 246 2.0 3.0 0.01 0.41 0.02 94 1026.0
20260502080107 39 13 1.0 2.0 0.01 0.40 0.01 92 1025.7
20260502070346 39 13 2.0 3.0 0.00 0.39 0.00 91 1025.7
20260502070021 39 13 1.0 3.0 0.00 0.39 0.00 91 1025.8
20260502063017 39 25 1.0 2.0 0.00 0.39 0.00 89 1025.9
20260502060334 39 14 0.0 1.0 0.00 0.39 0.00 89 1026.2
20260502060033 39 14 0.0 1.0 0.00 0.39 0.00 89 1026.3
20260502053011 40 17 0.0 3.0 0.00 0.39 0.00 93 1026.5
20260502050324 40 287 1.0 2.0 0.00 0.39 0.00 95 1026.5
20260502050109 40 287 0.0 1.0 0.00 0.39 0.00 95 1026.5
20260502043023 40 287 1.0 2.0 0.00 0.39 0.00 96 1026.4
20260502040316 39 287 0.0 0.0 0.00 0.39 0.00 97 1026.0
20260502040049 39 287 0.0 0.0 0.00 0.39 0.00 97 1026.0
20260502033046 39 287 0.0 1.0 0.00 0.39 0.39 97 1025.9
20260502030326 39 287 1.0 1.0 0.00 0.39 0.39 97 1025.9
20260502030019 39 287 1.0 1.0 0.00 0.39 0.39 97 1025.9
20260502023017 39 288 0.0 0.0 0.00 0.39 0.39 96 1025.9
20260502020403 38 288 1.0 2.0 0.00 0.39 0.39 95 1025.7
20260502020100 38 288 1.0 2.0 0.00 0.39 0.39 95 1025.7
20260502020018 38 288 1.0 2.0 0.00 0.39 0.39 95 1025.7
20260502013035 39 287 0.0 2.0 0.00 0.39 0.39 93 1025.4
20260502010354 40 287 0.0 2.0 0.00 0.39 0.39 91 1025.1
20260502010009 40 287 1.0 2.0 0.00 0.39 0.39 91 1025.2
20260502003027 41 301 1.0 3.0 0.00 0.39 0.39 87 1024.6
20260502000431 43 257 2.0 5.0 0.00 0.39 0.39 83 1024.5
20260502000043 43 298 2.0 5.0 0.00 0.39 0.39 82 1024.5
20260501233026 46 301 3.0 8.0 0.00 0.39 0.39 75 1024.1
20260501230429 47 76 3.0 9.0 0.00 0.39 0.39 74 1023.7
20260501230022 47 323 3.0 9.0 0.00 0.39 0.39 74 1023.6
20260501223030 46 27 1.0 5.0 0.00 0.39 0.39 76 1023.7
20260501220407 46 355 2.0 5.0 0.00 0.39 0.39 81 1023.6
20260501220325 46 355 2.0 5.0 0.00 0.39 0.39 81 1023.6
20260501220044 46 296 2.0 4.0 0.00 0.39 0.39 81 1023.6
20260501213041 45 70 1.0 3.0 0.00 0.39 0.39 84 1023.4
20260501210338 44 87 2.0 6.0 0.00 0.39 0.39 87 1023.0
20260501210037 44 130 2.0 6.0 0.00 0.39 0.39 86 1023.0
20260501203115 43 63 2.0 7.0 0.00 0.39 0.39 92 1023.2
20260501200355 42 84 2.0 4.0 0.00 0.39 0.39 94 1023.4
20260501200010 42 10 2.0 4.0 0.00 0.39 0.39 94 1023.3
20260501193026 41 26 2.0 6.0 0.00 0.39 0.39 95 1023.4